Location: Ay?beleni
(36.6500°N, 30.3000°E)
Time: 13:52:57
(UTC+00:00)

ISS - Pass Details

Date: 04 August 2021
Orbit: 419 x 423 km, 51.6° (Epoch: 21 September)

Event Time Altitude Azimuth Distance (km) Brightness Sun altitude
Rises 17:53:26 0° 305° (NW) 2,375 2.3 -10.1°
Reaches altitude 10° 17:55:36 10° 299° (WNW) 1,506 0.7 -10.5°
Maximum altitude 17:58:50 44° 226° (SW) 595 -2.9 -11.0°
Enters shadow 18:01:30 14° 156° (SSE) 1,283 -1.8 -11.5°
